Location: Stoke Bliss
(52.2667°N, 2.5167°W)
Time: 13:19:05
(UTC+00:00)

Cosmos 1727 Rocket - Pass Details

Date: 03 March 2021
Orbit: 961 x 996 km, 82.9° (Epoch: 13 April)

Event Time Altitude Azimuth Distance (km) Brightness Sun altitude
Rises 20:25:34 0° 348° (NNW) 3,660 7.5 -23.7°
Reaches altitude 10° 20:28:05 10° 348° (NNW) 2,710 6.7 -24.1°
Maximum altitude 20:34:16 79° 263° (W) 989 4.0 -24.9°
Enters shadow 20:37:45 28° 181° (S) 1,730 5.1 -25.4°
